User: anonymous   Login
Location: Corte Bragagnani
(45.3000°N, 11.1000°E)
Time: 14:01:22
(UTC+00:00)
Language:

MetOp-A - Orbit

View from above orbital plane
View from above orbital plane
View from above satellite
View from above satellite

Ground track
Ground track

The orbit data is extracted from the following two-line orbital elements,

1 29499U 06044A   20191.91188282 -.00000014 +00000-0 +12737-4 0  9999
2 29499 098.5203 237.9304 0001273 119.8184 053.1863 14.21501483711896
Epoch (UTC): 09 July 2020 21:53:06
Eccentricity: 0.0001273
inclination: 98.5203°
perigee height: 819 km
apogee height: 821 km
right ascension of ascending node: 237.9304°
argument of perigee: 119.8184°
revolutions per day: 14.21501483
mean anomaly at epoch: 53.1863°
orbit number at epoch: 71189

The dashed part of the orbit path shows where the satellite is in the earth's shadow,  

DLR